loading
|
DECAYED

OBJECT J, 61235 (Decayed)

Orbit data source: Space-Track

OBJECT J, 61235 was a satellite owned by Changzheng H. (CN) in SSO that was launched on Tue, 24 Sep 2024 UTC launched from the Yellow Sea Launch Area, China (YSLA). Unknown objects in Earth's orbit typically refer to objects detected orbiting the Earth but have not yet been identified or cataloged. These objects could be anything from previously untracked satellites, spent rocket stages, debris from satellite collisions, or even natural meteoroids temporarily captured by Earth's gravity. This object's orbit decayed before it could be identified.

Loading next visibility...
Next conjunction unknown
No 3D visualization available: RSO Decayed
OBJECT J details
Identifier
61235, 2024-173J
Orbit
Decayed
Last TLE update2 weeks ago
Origin
Flag of CNChangzheng H. (CN / PRC)
ManufacturerChangzheng H.
MissionDecayed spacecraft
Bus & MotorUnknown bus, Unknown motor
MassUnknown
Launch date (UTC)
2024-09-24 (3 weeks ago)
Launch vehicleUnknown
Launch site
Yellow Sea Launch Area, China (YSLA)
Object typeUnknown
Shape & HBRUnknown
Radar Cross SectionMedium (>0.1 m² and <1 m²)

Expand to show TLE details & history

TLE from 2 weeks ago
0 OBJECT J
1 61235U 24173J   24276.94185071  .00044548  00000-0  18438-2 0  9991
2 61235  97.3766 350.1967 0018166 145.3137 214.9289 15.23647602  1275
Epoch: 2024-10-02T22:36Z
Definitive object data (Epoch: 2024-10-02T22:36:15.901Z)
Latitude
Longitude-1.00354°
Altitude508.192 km
Speed7.604 km/s
True Right ascension23h 20m 47s
True Declination0° 00' 00"
Sunlit
Object was in full shadow at TLE epoch
Predictive object data (real-time)
Latitude-81.5794°
Longitude70.90885°
Altitude532.202 km
Speed7.589 km/s
Apparent Right ascension22h 03m 21s
Apparent Declination-66° 20' 12"
Sunlit
Object is in daylight
Predictive observer data (real-time)
Local Sidereal Time09:15:32
Azimuth190.456° SSW
Elevation-62.732°
Doppler factor1
Orbital elements
Apogee504.289 km
Perigee479.329 km
Semi-major axis6,869.946 km
Eccentricity0.0018166
Inclination97.3766°
RAAN350.1967°
Arg. of periapsis145.3137°
True anomaly214.80993°
Mean anomaly214.9289°
Eccentric anomaly214.86939°
Mean motion3.81165 °/min
BSTAR0.0018438
Period94.45 mins
No data available

OBJECT J Visibility forecast

Observer location: 39.9160978°, -105.1181434

Span
Click to sort rows by Start time (UTC) header in descending order
Start Az.
Max El. time (UTC)
Max El. Az.
Max El.
End time (UTC)
End Az.
4 mins2024-10-14 17:13:27.629Z51.21° ENE2024-10-14 17:15:27.629Z95.34° ESE21.751°2024-10-14 17:17:27.629Z139.924° SSE
4 mins2024-10-15 05:23:27.629Z198.819° SSW2024-10-15 05:25:27.629Z288.965° WNW36.056°2024-10-15 05:27:27.629Z331.845° NNW